TimeMDT,TemperatureF,Dew PointF,Humidity,Sea Level PressureIn,VisibilityMPH,Wind Direction,Wind SpeedMPH,Gust SpeedMPH,PrecipitationIn,Events,Conditions,WindDirDegrees,DateUTC
12:18 AM,5.0,3.2,92,29.91,10.0,NNE,15.0,18.4,N/A,,Clear,20,2013-04-11 06:18:00
12:38 AM,5.0,3.2,92,29.91,10.0,NNE,18.4,-,N/A,,Clear,30,2013-04-11 06:38:00
12:58 AM,6.8,3.2,85,29.91,10.0,NE,18.4,23.0,N/A,,Scattered Clouds,50,2013-04-11 06:58:00
1:18 AM,6.8,1.4,79,29.93,10.0,NE,8.1,-,N/A,,Clear,40,2013-04-11 07:18:00
1:38 AM,6.8,1.4,79,29.93,10.0,North,13.8,20.7,N/A,,Clear,360,2013-04-11 07:38:00
1:58 AM,10.4,1.4,67,29.92,10.0,NNE,27.6,33.4,N/A,,Clear,20,2013-04-11 07:58:00
2:18 AM,12.2,5.0,73,29.89,4.0,NE,29.9,35.7,N/A,,Haze,40,2013-04-11 08:18:00
2:38 AM,14.0,5.0,67,29.91,4.0,NNE,25.3,38.0,N/A,Snow,Light Snow,20,2013-04-11 08:38:00
2:58 AM,14.0,5.0,67,29.91,10.0,NNE,20.7,-,N/A,,Clear,20,2013-04-11 08:58:00
3:18 AM,14.0,6.8,73,29.89,10.0,NNE,23.0,26.5,N/A,,Clear,30,2013-04-11 09:18:00
3:38 AM,14.0,6.8,73,29.89,10.0,North,24.2,-,N/A,,Clear,10,2013-04-11 09:38:00
3:58 AM,12.2,6.8,79,29.91,10.0,North,18.4,-,N/A,,Clear,360,2013-04-11 09:58:00
4:18 AM,14.0,8.6,79,29.91,10.0,North,20.7,28.8,N/A,,Clear,10,2013-04-11 10:18:00
4:38 AM,14.0,8.6,79,29.91,10.0,North,21.9,29.9,N/A,,Clear,10,2013-04-11 10:38:00
4:58 AM,14.0,8.6,79,29.91,10.0,NNE,17.3,28.8,N/A,,Clear,20,2013-04-11 10:58:00
5:18 AM,14.0,8.6,79,29.91,7.0,NNE,25.3,-,N/A,,Clear,30,2013-04-11 11:18:00
5:38 AM,14.0,8.6,79,29.91,10.0,NNE,16.1,25.3,N/A,,Clear,30,2013-04-11 11:38:00
5:58 AM,15.8,10.4,79,29.91,10.0,NNE,12.7,-,N/A,,Clear,30,2013-04-11 11:58:00
6:18 AM,14.0,8.6,79,29.92,10.0,Calm,Calm,-,N/A,,Clear,0,2013-04-11 12:18:00
6:38 AM,14.0,10.4,86,29.91,10.0,West,8.1,-,N/A,,Clear,270,2013-04-11 12:38:00
6:58 AM,14.0,10.4,86,29.92,10.0,WNW,6.9,-,N/A,,Clear,300,2013-04-11 12:58:00
7:18 AM,14.0,10.4,86,29.93,10.0,NW,5.8,-,N/A,,Scattered Clouds,310,2013-04-11 13:18:00
7:38 AM,15.8,10.4,79,29.93,10.0,NW,4.6,-,N/A,,Overcast,310,2013-04-11 13:38:00
7:58 AM,17.6,12.2,79,29.93,10.0,West,10.4,16.1,N/A,Snow,Light Snow,260,2013-04-11 13:58:00
8:18 AM,17.6,14.0,86,29.94,7.0,West,10.4,16.1,N/A,Snow,Light Snow,260,2013-04-11 14:18:00
8:38 AM,19.4,14.0,80,29.94,10.0,West,5.8,-,N/A,,Overcast,270,2013-04-11 14:38:00
8:58 AM,19.4,14.0,80,29.95,7.0,West,11.5,17.3,N/A,Snow,Light Snow,260,2013-04-11 14:58:00
9:18 AM,17.6,12.2,79,29.95,10.0,SSW,11.5,16.1,N/A,Snow,Light Snow,210,2013-04-11 15:18:00
9:38 AM,19.4,12.2,74,29.96,10.0,WSW,5.8,18.4,N/A,,Overcast,240,2013-04-11 15:38:00
9:58 AM,21.2,12.2,68,29.95,10.0,SSW,12.7,16.1,N/A,,Mostly Cloudy,210,2013-04-11 15:58:00
10:38 AM,21.2,14.0,74,29.97,10.0,SW,8.1,18.4,N/A,,Mostly Cloudy,220,2013-04-11 16:38:00
10:58 AM,23.0,14.0,68,29.97,10.0,SSW,13.8,-,N/A,,Mostly Cloudy,200,2013-04-11 16:58:00
11:38 AM,24.8,17.6,74,29.98,10.0,SW,12.7,-,N/A,,Overcast,220,2013-04-11 17:38:00
11:58 AM,24.8,17.6,74,29.97,10.0,SSW,11.5,18.4,N/A,,Overcast,210,2013-04-11 17:58:00
12:18 PM,24.8,17.6,74,29.97,10.0,SSW,13.8,17.3,N/A,,Overcast,200,2013-04-11 18:18:00
12:38 PM,26.6,17.6,69,29.97,10.0,SSW,12.7,-,N/A,,Mostly Cloudy,210,2013-04-11 18:38:00
12:58 PM,26.6,17.6,69,29.97,10.0,SW,12.7,21.9,N/A,,Scattered Clouds,220,2013-04-11 18:58:00
1:18 PM,26.6,17.6,69,29.97,10.0,SSW,16.1,23.0,N/A,,Scattered Clouds,210,2013-04-11 19:18:00
1:38 PM,24.8,17.6,74,29.97,10.0,SW,17.3,24.2,N/A,,Mostly Cloudy,220,2013-04-11 19:38:00
1:58 PM,26.6,17.6,69,29.97,10.0,SSW,16.1,26.5,N/A,,Overcast,210,2013-04-11 19:58:00
2:18 PM,26.6,19.4,74,29.98,10.0,SSW,15.0,23.0,N/A,,Overcast,210,2013-04-11 20:18:00
2:38 PM,26.6,19.4,74,29.98,3.0,SSW,17.3,25.3,N/A,Snow,Light Snow,210,2013-04-11 20:38:00
2:58 PM,26.6,19.4,74,29.98,7.0,SSW,15.0,-,N/A,Snow,Light Snow,210,2013-04-11 20:58:00
3:38 PM,24.8,21.2,86,29.97,1.8,SSW,16.1,24.2,N/A,Snow,Light Snow,210,2013-04-11 21:38:00
3:58 PM,26.6,23.0,86,29.97,7.0,WSW,15.0,19.6,N/A,Snow,Light Snow,240,2013-04-11 21:58:00
4:18 PM,26.6,23.0,86,29.97,1.5,WSW,12.7,17.3,N/A,Snow,Light Snow,240,2013-04-11 22:18:00
4:38 PM,24.8,23.0,93,29.97,2.0,SW,11.5,-,N/A,,Overcast,230,2013-04-11 22:38:00
4:58 PM,26.6,23.0,86,29.98,1.2,South,3.5,-,N/A,Snow,Light Snow,190,2013-04-11 22:58:00
5:18 PM,24.8,23.0,93,29.98,1.2,WSW,8.1,-,N/A,Snow,Light Snow,240,2013-04-11 23:18:00
5:38 PM,24.8,23.0,93,29.98,0.5,SE,3.5,-,N/A,Snow,Light Snow,130,2013-04-11 23:38:00
5:58 PM,24.8,24.8,100,29.98,0.2,SSE,4.6,-,N/A,Snow,Snow,160,2013-04-11 23:58:00
6:18 PM,24.8,23.0,93,29.98,4.0,SW,8.1,-,0.01,Thunderstorm,Overcast,220,2013-04-12 00:18:00
6:38 PM,24.8,23.0,93,29.98,0.2,South,4.6,-,0.01,Snow,Light Snow,180,2013-04-12 00:38:00
6:58 PM,24.8,24.8,100,29.99,3.0,WSW,3.5,-,0.01,,Overcast,250,2013-04-12 00:58:00
7:18 PM,24.8,21.2,86,29.98,10.0,West,4.6,-,N/A,,Scattered Clouds,270,2013-04-12 01:18:00
7:38 PM,23.0,23.0,100,29.99,0.8,SSW,5.8,-,N/A,,Mostly Cloudy,200,2013-04-12 01:38:00
7:58 PM,23.0,23.0,100,29.99,0.2,SW,6.9,-,N/A,Fog,Light Freezing Fog,220,2013-04-12 01:58:00
8:18 PM,23.0,23.0,100,29.99,1.0,WSW,4.6,-,N/A,,Overcast,250,2013-04-12 02:18:00
8:38 PM,23.0,23.0,100,29.99,5.0,Calm,Calm,-,N/A,,Overcast,0,2013-04-12 02:38:00
8:58 PM,23.0,21.2,93,30.00,10.0,West,4.6,-,N/A,,Overcast,270,2013-04-12 02:58:00
9:18 PM,23.0,21.2,93,30.01,5.0,NNE,8.1,-,N/A,,Mostly Cloudy,20,2013-04-12 03:18:00
9:38 PM,21.2,17.6,86,30.01,10.0,WNW,8.1,-,N/A,,Mostly Cloudy,300,2013-04-12 03:38:00
9:58 PM,21.2,17.6,86,30.02,10.0,NW,3.5,-,N/A,,Mostly Cloudy,310,2013-04-12 03:58:00
10:18 PM,21.2,17.6,86,30.02,10.0,NW,4.6,-,N/A,,Overcast,310,2013-04-12 04:18:00
10:38 PM,21.2,15.8,80,30.03,10.0,East,3.5,-,N/A,,Scattered Clouds,80,2013-04-12 04:38:00
10:58 PM,19.4,12.2,74,30.03,10.0,ENE,3.5,-,N/A,,Clear,70,2013-04-12 04:58:00
11:18 PM,19.4,10.4,68,30.02,10.0,ENE,3.5,-,N/A,,Clear,70,2013-04-12 05:18:00
11:38 PM,19.4,10.4,68,30.02,10.0,NW,3.5,-,N/A,,Clear,320,2013-04-12 05:38:00
11:58 PM,19.4,17.6,93,30.02,10.0,SSW,3.5,-,N/A,,Scattered Clouds,210,2013-04-12 05:58:00